www.weatherandclimate.eu
Time
(UTC), date
15 17.06
18 17.06
21 17.06
00 18.06
03 18.06
06 18.06
09 18.06
12 18.06
15 18.06
18 18.06
21 18.06
00 19.06
03 19.06
06 19.06
09 19.06
12 19.06
15 19.06
18 19.06
21 19.06
00 20.06
03 20.06
06 20.06
09 20.06
12 20.06
15 20.06
18 20.06
21 20.06
00 21.06
03 21.06
06 21.06
12 21.06
15 21.06
18 21.06
21 21.06
00 22.06
03 22.06
06 22.06
09 22.06
12 22.06
15 22.06
18 22.06
21 22.06
00 23.06
03 23.06
06 23.06
09 23.06
12 23.06
15 23.06
18 23.06
21 23.06
00 24.06
03 24.06
06 24.06
09 24.06
12 24.06
Wind
(dir.,m/s)
Visibility Phenomena Clouds Т
(С)
Тd
(С)
f
(%)
Тe
(С)
Тes
(С)
Comfort P
(hPa)
Po
hPa)
Тmin
(С)
Tmax
(С)
R
(mm)
R24
(mm)
S
(sm)
W 2
{10}
25 km н/о +25.9 +15.3 52 +29 +29 stuffily 1001.4 997.7 +19.8 +33.6
W 1
{10}
30 km н/о +24.8 +7.9 34 +25 +25 comfort 1001.8 998.1 +19.8 +33.6
SE 1
{8}
20 km н/о +21.5 +7.3 40 +22 +22 comfort 1002.3 998.6 +20.1 +33.6
SW 1
{7}
28 km н/о +25.8 +9.2 35 +26 +26 hot 1002.8 999.1 +20.6 +33.6
W 3
{7}
30 km н/о +29.9 +3.8 19 +28 +28 hot 1001.3 997.6 +20.6 +33.6
NW 5
{13}
30 km н/о +32.9 +1.9 14 +30 +30 hot 999.4 995.7 +20.6 +33.6
W 6
{13}
30 km н/о +33.5 +1.3 13 +30 +30 hot 998.0 994.3 +20.6 +34.1
W 2
{13}
30 km н/о +30.3 +0.8 15 +28 +28 hot 998.7 995.0 +20.6 +34.1
W 1
{13}
18 km н/о +21.6 +5.9 36 +22 +22 comfort 999.7 996.0 +20.6 +34.1
SE 1
{12}
10 km н/о +19.0 +7.1 46 +21 +21 comfort 999.3 995.6 +18.9 +34.1
0
{12}
16 km н/о +17.1 +8.8 58 +17 +17 warm 998.5 994.8 +16.9 +34.1
NW 1
{5}
26 km н/о +27.8 +7.1 27 +27 +27 hot 999.0 995.3 +16.9 +34.1
W 3
{8}
30 km н/о +34.2 -0.4 11 +31 +31 hot 997.7 994.0 +16.9 +34.2
NW 6
{14}
30 km н/о +36.5 0.0 10 +33 +33 hot 995.8 992.1 +16.9 +36.6
NW 5
{14}
30 km н/о +36.3 -0.2 10 +33 +33 hot 994.8 991.1 +16.9 +37.0
N 3
{14}
30 km н/о +33.2 -2.5 10 +29 +29 hot 996.3 992.7 +16.9 +37.0
W 1
{14}
23 km н/о +24.4 +4.7 28 +24 +24 comfort 998.6 994.9 +16.9 +37.0
NE 2
{13}
29 km н/о +22.7 +5.6 33 +23 +23 comfort 999.1 995.4 +16.9 +37.0
NE 1
{11}
17 km н/о +19.1 +8.4 50 +21 +21 comfort 1000.4 996.7 +16.9 +37.0
N 2
{6}
30 km н/о +29.5 +4.9 21 +28 +28 hot 1001.4 997.8 +19.0 +37.0
NW 2
{6}
30 km н/о +33.2 +3.1 15 +30 +30 hot 1001.0 997.3 +19.0 +37.0
SW 3
{9}
30 km н/о +35.5 +4.9 15 +33 +33 hot 999.2 995.5 +19.0 +37.0
SE 2
{9}
30 km н/о +36.4 +4.6 14 +34 +34 very hot 997.6 993.9 +19.0 +37.2
S 2
{9}
30 km н/о +31.9 +6.9 21 +30 +30 hot 998.4 994.8 +19.0 +37.2
S 1
{9}
22 km н/о +28.2 +7.4 27 +28 +28 hot 999.1 995.5 +19.0 +37.2
SW 1
{7}
21 km н/о +23.8 +9.0 39 +25 +25 comfort 999.0 995.3 +19.0 +37.2
NE 2
{7}
15 km н/о +22.0 +10.2 47 +24 +24 comfort 1000.0 996.3 +19.1 +37.2
NE 4
{7}
15 km н/о +26.2 +14.0 47 +28 +28 hot 1002.3 998.6 +21.3 +37.2
NE 4
{8}
20 km н/о +32.0 +11.2 28 +32 +32 hot 1002.1 998.4 +21.3 +37.2
E 4
{8}
30 km н/о +35.3 +8.2 19 +34 +34 very hot 1000.7 997.0 +21.3 +37.2
SE 3
{8}
26 km н/о +29.3 +14.7 41 +32 +32 stuffily 1003.4 999.7 +21.3 +35.9
E 2
{8}
30 km н/о +25.7 +13.2 46 +28 +28 hot 1006.9 1003.2 +21.3 +35.9
NE 1
{8}
30 km н/о +22.3 +13.1 56 +25 +25 comfort 1007.7 1004.0 +21.3 +35.9
0
{8}
21 km н/о +22.0 +13.9 60 +25 +25 comfort 1008.9 1005.2 +21.7 +35.9
SW 2
{8}
30 km н/о +26.3 +13.4 45 +28 +28 hot 1010.4 1006.7 +21.7 +35.9
SW 3
{6}
30 km н/о +29.6 +14.2 39 +32 +32 stuffily 1009.5 1005.8 +21.7 +35.9
S 3
{6}
30 km н/о +31.9 +14.1 34 +33 +33 hot 1007.8 1004.1 +21.7 +35.7
S 3
{7}
30 km н/о +32.1 +13.8 33 +33 +33 hot 1006.7 1003.0 +21.7 +33.9
S 4
{8}
30 km н/о +28.2 +13.7 41 +30 +30 hot 1008.1 1004.4 +21.7 +32.9
S 1
{8}
30 km н/о +24.8 +12.4 46 +27 +27 hot 1010.0 1006.3 +21.7 +32.9
E 1
{8}
30 km н/о +23.4 +12.4 50 +26 +26 hot 1010.4 1006.7 +21.7 +32.9
E 1
{8}
17 km н/о +22.2 +14.8 63 +26 +26 stuffily 1010.9 1007.2 +21.9 +32.9
NE 2
{8}
8000 m rainwithinpasthour н/о +20.5 +17.5 83 +25 +25 comfort 1013.6 1009.8 +20.5 +32.9 0.5 0.5
SE 1
{5}
14 km н/о +22.9 +15.5 63 +27 +27 stuffily 1012.5 1008.7 +20.0 +32.9 4 3.8
SW 2
{5}
25 km н/о +24.9 +15.2 55 +28 +28 hot 1011.3 1007.5 +20.0 +32.9 3 3.8
SW 3
{5}
20 km н/о +25.2 +16.4 58 +29 +29 stuffily 1009.5 1005.7 +20.0 +32.5 3.8
SW 3
{5}
17 km н/о +23.5 +16.8 66 +27 +27 stuffily 1011.0 1007.2 +20.0 +28.1 3.8
SW 1
{5}
30 km н/о +22.6 +13.9 58 +26 +26 hot 1010.7 1006.9 +20.0 +25.5 3.8
0
{5}
28 km н/о +21.3 +15.8 71 +25 +25 comfort 1009.2 1005.4 +20.0 +25.5 3.8
0
{5}
18 km н/о +19.8 +16.6 82 +22 +22 comfort 1009.2 1005.4 +19.7 +25.5 3.8
E 1
{5}
14 km н/о +24.2 +15.4 58 +27 +27 hot 1009.0 1005.2 +19.7 +25.5 3.3
SE 1
{3}
17 km н/о +26.2 +15.0 50 +29 +29 hot 1008.9 1005.1 +19.7 +26.3
W 1
{3}
12 km н/о +27.0 +15.7 50 +30 +30 stuffily 1007.6 1003.8 +19.7 +27.2
S 1
{3}
11 km н/о +26.7 +16.6 54 +30 +30 stuffily 1006.3 1002.5 +19.7 +27.3
SW 1
{3}
10 km н/о +25.3 +17.2 61 +29 +29 stuffily 1005.9 1002.2 +19.7 +27.3
Weather station location Пекин (city of Beijing, China): latitude 39.93 longitude 116.28 Height above sea level 55 m.
The archive shows weather in в Пекине for the last week. For the whole month and for the previous months, starting from January 2011, you can obtain archived data by selecting the date range of interest from the drop-down list and clicking the "Find!".
*Decide who are you:
Attention! The time in the tables is UTC. To get the local time, you must add an amendment that is equal to 8 h.
See also the weather archive in nearby cities and at nearby weather stations:
Partners of our site:
Column explanations:
  • Wind - indicated wind speed in m/s - average for 10 minutes, gusts in time and between periods (in brackets) and the direction from which the wind blows: N - North, NE - North-East, E - East, SE - South-East , S - South, SW - South-West, W - West, NW - North-West.
  • Visibility - horizontal visibility range in meters or kilometers. When visibility is from 1 to 10 km in the absence of precipitation, haze is usually observed, and when visibility is reduced to 1 km or less, fog is observed. In dry weather, visibility may be reduced by smoke, dust, or haze.
  • Phenomena - atmospheric phenomena observed during the period or in the last hour before the period are indicated; curly brackets indicate phenomena observed between periods (1-3 hours before the period); square brackets indicate hail or ice deposits with their diameter in mm.
  • Clouds - are through slash total and lower clouds in points, and the height of the lower border of the cloud in meters; square brackets contain cloud forms: Ci - Cirrus, Cs - Cirrostratus, Cc - Cirrocumulus, Ac - Altocumulus, As - Altostratus, Sc - Stratocumulus, Ns - Nimbostratus, Cu - Cumulus, Cb - Cumulonimbus. For more information about cloud classification, see the cloud Atlas (PDF).
  • T - Air temperature - temperature measured at a height of 2 m above the ground.
  • Td - Dew point temperature - the temperature is lowered to that contained in the air, the water vapor reaches saturation.
  • f - Relative humidity measured at a height of 2 m above the ground.
  • Te - Effective temperature is the temperature that a seasonally dressed person feels in the shade. Characteristic of stuffy weather. The calculation takes into account the influence of air humidity and wind speed on a person’s heat.
  • Tes - Effective sun temperature - the temperature that a person feels, adjusted for solar heating. Characteristics of the sultry weather. Depends on the height of the sun above the horizon, cloud cover and wind speed. At night, in cloudy weather, as well as in winds of 12 m/s or more, the correction is zero.
  • P - Atmospheric pressure - atmospheric pressure reduced to sea level.
  • Po - Atmospheric pressure - atmospheric pressure measured at the station level.
  • Tmin - Minimum temperature - minimum air temperature at a height of 2 m above the ground.
  • Tmax - Maximum temperature - maximum air temperature at a height of 2 m above the ground.
  • R - Precipitation - The amount of precipitation over a period of time, mm. When you hover over the number, the time period for which the specified amount of precipitation has fallen.
  • R24 - Количество осадков - The amount of precipitation in 24 hours, mm.
  • S - Snow cover - The height of the snow cover. When you hover the mouse over the number - the state of the snow cover and the degree of coverage in points.